Alburnett, IA

8:36 AM CDT on August 28, 2015 (GMT -0500)
KIACENTR2 | | Change Station
CLOSE
Current Station
Personal Weather Station
Location: Central City, IA
Elevation: 930 ft
Nearby Weather Stations

Elev 930 ft 42.20 °N, 91.65 °W | Updated 2 seconds ago

Rain
Rain
61.0 °F
Feels Like 61.0 °F
N
4.2
Wind Variable Wind from SSE
Gusts 7.4 mph

Today
High -- | Low -- °F
--% Chance of Precip.
Yesterday
High -- | Low -- °F
Precip. -- in
6:27 AM 7:47 PM
Waxing Gibbous, 98% visible
Pressure 30.03 in
Visibility 6.0 miles
Clouds Mostly Cloudy 9500 ft
Mostly Cloudy 11000 ft
Dew Point 60 °F
Humidity 96%
Rainfall 0.00 in
Snow Depth Not available.
UV 0.0 out of 12
Pollen 2.70 out of 12
Air Quality Not available.
Flu Activity Not available.
METAR KCID 281252Z 09009KT 6SM BR BKN095 BKN110 16/16 A3004 RMK AO2 SLP169 T01560156
Pressure 30.03 in
Visibility 6.0 miles
Clouds Mostly Cloudy 9500 ft
Mostly Cloudy 11000 ft
Dew Point 60 °F
Humidity 96%
Rainfall 0.00 in
Snow Depth Not available.
UV 0.0 out of 12
Pollen 2.70 out of 12
Air Quality Not available.
Flu Activity Not available.
METAR KCID 281252Z 09009KT 6SM BR BKN095 BKN110 16/16 A3004 RMK AO2 SLP169 T01560156

10-Day Weather Forecast

×

Almanac

Astronomy

Aug. 28, 2015 Rise Set
Actual Time
Civil Twilight
Nautical Twilight
Astronomical Twilight
Moon
Length of Visible Light
Length of Day
Tomorrow will be .
, % of the Moon is Illuminated

Today's Extremes

State Highs State Lows

Community

WunderPhotos

Upload Photos

1,850,376 photos uploaded!

WunderBlogs® & News

Nearby

Air Quality

  Air Quality AQ Index Pollutant
Not available.

Snow Depth

Station Depth Elevation

Earthquake Activity

City Distance Mag. Time & Date
Minimum magnitude displayed is 2.5.

Coastal Water Temperatures

Place Temperature

Stations

Nearby Weather Stations

Station Location Temp. Windchill Dew Point Humidity Wind Precip. Elev Updated Type